Hourly Weather Kanavka

Today, 22 October, Thursday

Time Temperature Precipitation Wind Pressure Humidity
00:00 +2°C° 0 mm 3 mps 765 mmHg 54%
01:00 +2°C° 0 mm 3 mps 765 mmHg 56%
02:00 +2°C° 0 mm 3 mps 765 mmHg 57%
03:00 +3°C° 0 mm 2 mps 765 mmHg 62%
04:00 +2°C° 0 mm 2 mps 765 mmHg 64%
05:00 +2°C° 0 mm 2 mps 765 mmHg 67%
06:00 +1°C° 0 mm 2 mps 765 mmHg 70%
07:00 +2°C° 0 mm 2 mps 765 mmHg 65%
08:00 +2°C° 0 mm 3 mps 765 mmHg 60%
09:00 +3°C° 0 mm 3 mps 766 mmHg 56%
10:00 +4°C° 0 mm 3 mps 766 mmHg 52%
11:00 +5°C° 0 mm 3 mps 766 mmHg 49%
12:00 +7°C° 0 mm 3 mps 766 mmHg 46%
13:00 +7°C° 0 mm 3 mps 766 mmHg 48%
14:00 +7°C° 0 mm 3 mps 766 mmHg 49%
15:00 +6°C° 0 mm 4 mps 766 mmHg 50%
16:00 +5°C° 0 mm 3 mps 765 mmHg 55%
17:00 +5°C° 0 mm 2 mps 765 mmHg 60%
18:00 +4°C° 0 mm 2 mps 765 mmHg 65%
19:00 +4°C° 0 mm 2 mps 765 mmHg 66%
20:00 +4°C° 0 mm 2 mps 765 mmHg 68%
21:00 +5°C° 0 mm 1 mps 765 mmHg 69%
22:00 +4°C° 0 mm 2 mps 765 mmHg 69%
23:00 +4°C° 0 mm 2 mps 765 mmHg 70%

Tomorrow, 23 October, Friday

Time Temperature Precipitation Wind Pressure Humidity
00:00 +4°C° 0 mm 3 mps 764 mmHg 70%
01:00 +4°C° 0.1 mm 3 mps 764 mmHg 70%
02:00 +4°C° 0.1 mm 4 mps 764 mmHg 71%
03:00 +3°C° 0.1 mm 5 mps 763 mmHg 72%
04:00 +5°C° 0.1 mm 5 mps 763 mmHg 71%
05:00 +4°C° 0.1 mm 6 mps 762 mmHg 70%
06:00 +4°C° 0.1 mm 6 mps 762 mmHg 70%
07:00 +4°C° 0.3 mm 6 mps 762 mmHg 71%
08:00 +4°C° 0.3 mm 7 mps 761 mmHg 72%
09:00 +4°C° 0.3 mm 7 mps 761 mmHg 74%
10:00 +5°C° 0.1 mm 7 mps 761 mmHg 74%
11:00 +5°C° 0.1 mm 7 mps 760 mmHg 75%
12:00 +6°C° 0.1 mm 7 mps 760 mmHg 76%
13:00 +9°C° 0 mm 6 mps 759 mmHg 71%
14:00 +11°C° 0 mm 6 mps 759 mmHg 66%
15:00 +13°C° 0 mm 6 mps 758 mmHg 60%
16:00 +13°C° 0 mm 5 mps 758 mmHg 62%
17:00 +13°C° 0 mm 4 mps 758 mmHg 64%
18:00 +13°C° 0 mm 3 mps 758 mmHg 66%
19:00 +12°C° 0 mm 3 mps 758 mmHg 70%
20:00 +11°C° 0 mm 3 mps 758 mmHg 74%
21:00 +10°C° 0 mm 3 mps 758 mmHg 77%
22:00 +10°C° 0 mm 3 mps 758 mmHg 78%
23:00 +10°C° 0 mm 3 mps 758 mmHg 79%

Day after tomorrow, 24 October, Saturday

Time Temperature Precipitation Wind Pressure Humidity
00:00 +10°C° 0 mm 3 mps 758 mmHg 80%
01:00 +10°C° 0 mm 3 mps 758 mmHg 79%
02:00 +10°C° 0 mm 4 mps 757 mmHg 79%
03:00 +10°C° 0 mm 4 mps 757 mmHg 79%
04:00 +10°C° 0.4 mm 4 mps 757 mmHg 82%
05:00 +9°C° 0.4 mm 5 mps 756 mmHg 86%
06:00 +10°C° 0.4 mm 5 mps 756 mmHg 89%
07:00 +11°C° 0.2 mm 6 mps 756 mmHg 83%
08:00 +13°C° 0.2 mm 6 mps 756 mmHg 77%
09:00 +14°C° 0.2 mm 7 mps 756 mmHg 70%
10:00 +15°C° 0 mm 7 mps 756 mmHg 62%
11:00 +17°C° 0 mm 7 mps 755 mmHg 54%
12:00 +18°C° 0 mm 7 mps 755 mmHg 45%
13:00 +19°C° 0 mm 6 mps 755 mmHg 46%
14:00 +19°C° 0 mm 6 mps 756 mmHg 46%
15:00 +19°C° 0 mm 5 mps 756 mmHg 46%
16:00 +18°C° 0 mm 4 mps 756 mmHg 52%
17:00 +17°C° 0 mm 4 mps 756 mmHg 57%
18:00 +14°C° 0 mm 3 mps 757 mmHg 63%
19:00 +14°C° 0 mm 3 mps 757 mmHg 66%
20:00 +14°C° 0 mm 2 mps 757 mmHg 69%
21:00 +14°C° 0 mm 2 mps 758 mmHg 72%
22:00 +13°C° 0 mm 2 mps 757 mmHg 75%
23:00 +13°C° 0 mm 1 mps 757 mmHg 78%

, 25 October, Sunday

Time Temperature Precipitation Wind Pressure Humidity
00:00 +12°C° 0 mm 1 mps 757 mmHg 81%
01:00 +12°C° 0 mm 1 mps 757 mmHg 80%
02:00 +13°C° 0 mm 1 mps 757 mmHg 80%
03:00 +13°C° 0 mm 1 mps 757 mmHg 79%
04:00 +13°C° 0.1 mm 1 mps 757 mmHg 79%
05:00 +13°C° 0.1 mm 1 mps 757 mmHg 80%
06:00 +13°C° 0.1 mm 2 mps 757 mmHg 81%
07:00 +13°C° 0 mm 2 mps 757 mmHg 78%
08:00 +14°C° 0 mm 2 mps 757 mmHg 75%
09:00 +14°C° 0 mm 2 mps 756 mmHg 73%
10:00 +14°C° 0 mm 3 mps 756 mmHg 68%
11:00 +16°C° 0 mm 3 mps 755 mmHg 64%
12:00 +17°C° 0 mm 4 mps 755 mmHg 59%
13:00 +17°C° 0 mm 4 mps 754 mmHg 59%
14:00 +18°C° 0 mm 4 mps 754 mmHg 59%
15:00 +18°C° 0 mm 4 mps 753 mmHg 58%
16:00 +16°C° 0.1 mm 5 mps 753 mmHg 62%
17:00 +15°C° 0.1 mm 6 mps 753 mmHg 67%
18:00 +15°C° 0.1 mm 6 mps 752 mmHg 71%
19:00 +14°C° 0 mm 7 mps 753 mmHg 71%
20:00 +11°C° 0 mm 8 mps 753 mmHg 71%
21:00 +10°C° 0 mm 9 mps 754 mmHg 72%
22:00 +10°C° 0 mm 9 mps 754 mmHg 74%
23:00 +10°C° 0 mm 8 mps 755 mmHg 76%

25 October, Sunday

Time Temperature Precipitation Wind Pressure Humidity
00:00 +12°C° 0 mm 1 mps 757 mmHg 81%
01:00 +12°C° 0 mm 1 mps 757 mmHg 80%
02:00 +13°C° 0 mm 1 mps 757 mmHg 80%
03:00 +13°C° 0 mm 1 mps 757 mmHg 79%
04:00 +13°C° 0.1 mm 1 mps 757 mmHg 79%
05:00 +13°C° 0.1 mm 1 mps 757 mmHg 80%
06:00 +13°C° 0.1 mm 2 mps 757 mmHg 81%
07:00 +13°C° 0 mm 2 mps 757 mmHg 78%
08:00 +14°C° 0 mm 2 mps 757 mmHg 75%
09:00 +14°C° 0 mm 2 mps 756 mmHg 73%
10:00 +14°C° 0 mm 3 mps 756 mmHg 68%
11:00 +16°C° 0 mm 3 mps 755 mmHg 64%
12:00 +17°C° 0 mm 4 mps 755 mmHg 59%
13:00 +17°C° 0 mm 4 mps 754 mmHg 59%
14:00 +18°C° 0 mm 4 mps 754 mmHg 59%
15:00 +18°C° 0 mm 4 mps 753 mmHg 58%
16:00 +16°C° 0.1 mm 5 mps 753 mmHg 62%
17:00 +15°C° 0.1 mm 6 mps 753 mmHg 67%
18:00 +15°C° 0.1 mm 6 mps 752 mmHg 71%
19:00 +14°C° 0 mm 7 mps 753 mmHg 71%
20:00 +11°C° 0 mm 8 mps 753 mmHg 71%
21:00 +10°C° 0 mm 9 mps 754 mmHg 72%
22:00 +10°C° 0 mm 9 mps 754 mmHg 74%
23:00 +10°C° 0 mm 8 mps 755 mmHg 76%

26 October, Monday

Time Temperature Precipitation Wind Pressure Humidity
00:00 +9°C° 0 mm 8 mps 756 mmHg 78%
01:00 +9°C° 0 mm 7 mps 756 mmHg 79%
02:00 +8°C° 0 mm 7 mps 757 mmHg 79%
03:00 +6°C° 0 mm 7 mps 757 mmHg 80%
04:00 +7°C° 0 mm 6 mps 758 mmHg 82%
05:00 +5°C° 0 mm 6 mps 759 mmHg 83%
06:00 +5°C° 0 mm 6 mps 759 mmHg 85%
07:00 +7°C° 0 mm 6 mps 760 mmHg 80%
08:00 +7°C° 0 mm 6 mps 760 mmHg 74%
09:00 +8°C° 0 mm 6 mps 761 mmHg 69%
10:00 +9°C° 0 mm 6 mps 761 mmHg 64%
11:00 +10°C° 0 mm 6 mps 762 mmHg 58%
12:00 +12°C° 0 mm 5 mps 762 mmHg 53%
13:00 +11°C° 0 mm 6 mps 762 mmHg 53%
14:00 +11°C° 0 mm 6 mps 762 mmHg 53%
15:00 +11°C° 0 mm 6 mps 762 mmHg 52%
16:00 +10°C° 0 mm 6 mps 762 mmHg 54%
17:00 +10°C° 0 mm 5 mps 763 mmHg 56%
18:00 +9°C° 0 mm 5 mps 763 mmHg 58%
19:00 +9°C° 0 mm 5 mps 763 mmHg 61%
20:00 +8°C° 0 mm 6 mps 764 mmHg 64%
21:00 +7°C° 0 mm 6 mps 764 mmHg 67%
22:00 +5°C° 0 mm 6 mps 765 mmHg 66%
23:00 +5°C° 0 mm 5 mps 765 mmHg 66%

27 October, Tuesday

Time Temperature Precipitation Wind Pressure Humidity
00:00 +3°C° 0 mm 5 mps 766 mmHg 65%
01:00 +2°C° 0 mm 5 mps 766 mmHg 66%
02:00 +1°C° 0 mm 5 mps 767 mmHg 68%
03:00 +1°C° 0 mm 4 mps 767 mmHg 69%
04:00 0°C° 0 mm 4 mps 768 mmHg 70%
05:00 0°C° 0 mm 4 mps 768 mmHg 72%
06:00 -1°C° 0 mm 4 mps 769 mmHg 74%
07:00 0°C° 0 mm 4 mps 769 mmHg 70%
08:00 0°C° 0 mm 4 mps 770 mmHg 67%
09:00 +1°C° 0 mm 4 mps 770 mmHg 63%
10:00 +3°C° 0 mm 4 mps 771 mmHg 57%
11:00 +4°C° 0 mm 4 mps 771 mmHg 51%
12:00 +5°C° 0 mm 4 mps 771 mmHg 45%
13:00 +6°C° 0 mm 4 mps 771 mmHg 43%
14:00 +6°C° 0 mm 4 mps 771 mmHg 42%
15:00 +7°C° 0 mm 3 mps 771 mmHg 41%
16:00 +5°C° 0 mm 3 mps 771 mmHg 45%
17:00 +4°C° 0 mm 3 mps 772 mmHg 49%
18:00 +4°C° 0 mm 2 mps 772 mmHg 53%
19:00 +4°C° 0 mm 2 mps 772 mmHg 56%
20:00 +3°C° 0 mm 2 mps 772 mmHg 59%
21:00 +3°C° 0 mm 2 mps 772 mmHg 61%
22:00 +2°C° 0 mm 2 mps 772 mmHg 64%
23:00 +2°C° 0 mm 2 mps 772 mmHg 66%
Show more